DELTA 1 DEB *, 6213

Orbit data source: Space-Track

DELTA 1 DEB *, 6213 is space debris in SSO originally from a launch on Sun, 02 Oct 1966 UTC launched from the Air Force Western Test Range (AFWTR). Debris objects in space refer to the collection of defunct objects orbiting the Earth. Examples of debris include non-operational satellites, rocket bodies, and fragments generated from explosions, collisions, or faulty payload assembly.

Loading next visibility...
Identifier
6213, 1966-087E
Orbit
SSO
Country
Flag of USUS
Related business
Manufacturer
Unknown
Mission
Spacecraft
Bus & Motor
Unknown
Mass
Unknown
Launch date (UTC)
1966-10-02 (60 years ago)
Launch vehicle
Unknown
Launch site
Air Force Western Test Range (AFWTR)
Object type
Payload
Rocket body
Debris
Shape & HBR
Unknown shape, 0.1 m
Radar Cross Section
Medium (>0.1 m² and <1 m²)

Expand to show TLE details & history
Last TLE update: 9 hours ago

TLE from 9 hours ago
0 DELTA 1 DEB *
1 06213U 66087E   26150.56253905  .00003138  00000-0  72785-2 0  9994
2 06213 101.7619 170.0181 0035997 261.8639 250.5353 13.25552604794012
Epoch: 2026-05-30T13:30Z
TLE epoch observation values (Epoch: 2026-05-30T13:30:03.373Z)
Latitude
27.39207°
Longitude
-94.41043°
Altitude
1,175.857 km
Speed
7.264 km/s
True Right ascension
23h 44m 43s
True Declination
27° 15' 35"
Sunlit
Object was in daylight at epoch
Visualization orbit readout
Latitude
Unknown
Longitude
Unknown
Altitude
Unknown
Speed
Unknown
Apparent Right ascension
Unknown
Apparent Declination
Unknown
Sunlit
N/A
Visualization observer readout
Local Sidereal Time
08:22:59
Azimuth
Unknown
Elevation
Unknown
Doppler factor
Unknown
Orbital elements
Apogee altitude
1,188.173 km
Perigee altitude
1,133.896 km
Semi-major axis
7,539.172 km
Eccentricity
0.0036
Inclination
101.7619°
RAAN
170.0181°
Arg. of periapsis
261.8639°
True anomaly
250.14697°
Mean anomaly
250.5353°
Eccentric anomaly
250.34107°
Mean motion
3.31557 °/min
Orbital period
108.58 mins
BSTAR
0.0072785
Loading maneuver chart data...
Computing Atmospheric mass density...
Loading historical data...
Loading historical data...
Loading historical data...
Loading historical data...
Loading historical data...
Loading historical data...
Loading historical data...
Other satellites on launch #87 in the year 1966 (1966-10-02 UTC)

Documentation

Showing up to 5 results
|